User: anonymous   Login
Location: Chandolas
(44.4033°N, 4.2533°E)
Time: 11:44:14
(UTC+00:00)
Language:

Tsikada Rocket - Orbit

View from above orbital plane
View from above orbital plane
View from above satellite
View from above satellite

Ground track
Ground track

The orbit data is extracted from the following two-line orbital elements,

1 23466U 95002D   20021.20212721  .00000008  00000-0 -76256-5 0  9999
2 23466  82.9252 282.3472 0035912  78.8582  29.2216 13.74432957253510
Epoch (UTC): 21 January 2020 04:51:03
Eccentricity: 0.0035912
inclination: 82.9252°
perigee height: 957 km
apogee height: 1010 km
right ascension of ascending node: 282.3472°
argument of perigee: 78.8582°
revolutions per day: 13.74432957
mean anomaly at epoch: 29.2216°
orbit number at epoch: 25351

The dashed part of the orbit path shows where the satellite is in the earth's shadow,  

DLR